• In Germany
  • List of Countries
  • For 7 days
  • Water Temperature
  • Satellite Maps
  • Weather Map
  • Weather Widgets
  • user-avatar
    Login

    Hourly Weather Jelenia Góra

    Today, 13 December, Wednesday

    Time Temperature Precipitation Wind Pressure Humidity
    00:00 -2°C° 0 mm 4 mps 729 mmHg 81%
    01:00 -1°C° 0 mm 3 mps 730 mmHg 86%
    02:00 -1°C° 0 mm 3 mps 730 mmHg 87%
    03:00 -2°C° 0 mm 3 mps 730 mmHg 87%
    04:00 -2°C° 0 mm 3 mps 730 mmHg 88%
    05:00 -2°C° 0 mm 3 mps 730 mmHg 89%
    06:00 -3°C° 0 mm 2 mps 730 mmHg 89%
    07:00 -1°C° 0 mm 1 mps 731 mmHg 90%
    08:00 -2°C° 0 mm 2 mps 730 mmHg 87%
    09:00 -2°C° 0 mm 3 mps 730 mmHg 83%
    10:00 -1°C° 0 mm 3 mps 730 mmHg 79%
    11:00 -1°C° 0 mm 4 mps 730 mmHg 76%
    12:00 -1°C° 0 mm 4 mps 729 mmHg 73%
    13:00 0°C° 0 mm 4 mps 729 mmHg 69%
    14:00 -1°C° 0 mm 4 mps 728 mmHg 71%
    15:00 -1°C° 0 mm 4 mps 727 mmHg 73%
    16:00 -2°C° 0 mm 4 mps 726 mmHg 75%
    17:00 -2°C° 0 mm 5 mps 725 mmHg 74%
    18:00 -3°C° 0 mm 6 mps 725 mmHg 73%
    19:00 -3°C° 0 mm 6 mps 724 mmHg 72%
    20:00 -3°C° 0 mm 7 mps 723 mmHg 68%
    21:00 -2°C° 0 mm 7 mps 722 mmHg 65%
    22:00 -2°C° 0 mm 7 mps 721 mmHg 61%
    23:00 -2°C° 0 mm 7 mps 720 mmHg 62%

    Tomorrow, 14 December, Thursday

    Time Temperature Precipitation Wind Pressure Humidity
    00:00 -1°C° 0 mm 7 mps 719 mmHg 63%
    01:00 -1°C° 0 mm 8 mps 718 mmHg 65%
    02:00 -1°C° 0.1 mm 8 mps 716 mmHg 66%
    03:00 -1°C° 0.1 mm 8 mps 715 mmHg 68%
    04:00 0°C° 0.1 mm 8 mps 714 mmHg 69%
    05:00 0°C° 0.4 mm 8 mps 714 mmHg 71%
    06:00 0°C° 0.4 mm 8 mps 714 mmHg 72%
    07:00 +1°C° 0.4 mm 8 mps 714 mmHg 73%
    08:00 +1°C° 0.1 mm 8 mps 714 mmHg 74%
    09:00 +2°C° 0.1 mm 7 mps 714 mmHg 75%
    10:00 +2°C° 0.1 mm 7 mps 714 mmHg 75%
    11:00 0°C° 0.4 mm 9 mps 715 mmHg 73%
    12:00 0°C° 0.4 mm 10 mps 715 mmHg 71%
    13:00 -2°C° 0.4 mm 12 mps 716 mmHg 69%
    14:00 -2°C° 0.3 mm 10 mps 716 mmHg 69%
    15:00 -2°C° 0.3 mm 8 mps 717 mmHg 68%
    16:00 -2°C° 0.3 mm 6 mps 718 mmHg 68%
    17:00 -2°C° 0 mm 6 mps 718 mmHg 70%
    18:00 -2°C° 0 mm 6 mps 718 mmHg 73%
    19:00 -3°C° 0 mm 6 mps 718 mmHg 75%
    20:00 -2°C° 0 mm 6 mps 718 mmHg 75%
    21:00 -2°C° 0 mm 6 mps 717 mmHg 75%
    22:00 -2°C° 0 mm 6 mps 717 mmHg 75%
    23:00 -1°C° 0.1 mm 5 mps 716 mmHg 77%

    Day after tomorrow, 15 December, Friday

    Time Temperature Precipitation Wind Pressure Humidity
    00:00 -1°C° 0.1 mm 5 mps 716 mmHg 78%
    01:00 -1°C° 0.1 mm 5 mps 715 mmHg 80%
    02:00 -1°C° 0.4 mm 5 mps 715 mmHg 81%
    03:00 -1°C° 0.4 mm 5 mps 714 mmHg 82%
    04:00 0°C° 0.4 mm 5 mps 714 mmHg 82%
    05:00 -1°C° 0.8 mm 6 mps 714 mmHg 83%
    06:00 -1°C° 0.8 mm 6 mps 714 mmHg 84%
    07:00 +1°C° 0.8 mm 6 mps 714 mmHg 85%
    08:00 -1°C° 0.5 mm 6 mps 715 mmHg 85%
    09:00 -1°C° 0.5 mm 6 mps 715 mmHg 85%
    10:00 -1°C° 0.5 mm 6 mps 716 mmHg 84%
    11:00 0°C° 0 mm 5 mps 717 mmHg 82%
    12:00 0°C° 0 mm 5 mps 717 mmHg 79%
    13:00 0°C° 0 mm 5 mps 717 mmHg 77%
    14:00 -1°C° 0 mm 4 mps 718 mmHg 78%
    15:00 -2°C° 0 mm 4 mps 718 mmHg 80%
    16:00 -1°C° 0 mm 3 mps 718 mmHg 82%
    17:00 -2°C° 0 mm 3 mps 718 mmHg 82%
    18:00 -2°C° 0 mm 3 mps 719 mmHg 83%
    19:00 -3°C° 0 mm 2 mps 719 mmHg 84%
    20:00 -3°C° 0 mm 2 mps 719 mmHg 85%
    21:00 -2°C° 0 mm 2 mps 719 mmHg 85%
    22:00 -2°C° 0 mm 2 mps 719 mmHg 85%
    23:00 -2°C° 0 mm 2 mps 719 mmHg 86%

    16 December, Saturday

    Time Temperature Precipitation Wind Pressure Humidity
    00:00 -2°C° 0 mm 2 mps 719 mmHg 87%
    01:00 -1°C° 0 mm 2 mps 719 mmHg 88%
    02:00 -2°C° 0 mm 2 mps 719 mmHg 89%
    03:00 -2°C° 0 mm 2 mps 719 mmHg 90%
    04:00 -2°C° 0 mm 2 mps 719 mmHg 91%
    05:00 -2°C° 0 mm 2 mps 719 mmHg 91%
    06:00 -2°C° 0 mm 2 mps 719 mmHg 91%
    07:00 -2°C° 0 mm 2 mps 720 mmHg 92%
    08:00 -2°C° 0 mm 2 mps 720 mmHg 90%
    09:00 -1°C° 0 mm 2 mps 721 mmHg 89%
    10:00 -1°C° 0 mm 3 mps 721 mmHg 87%
    11:00 0°C° 0 mm 3 mps 721 mmHg 86%
    12:00 0°C° 0 mm 3 mps 722 mmHg 85%
    13:00 -1°C° 0 mm 4 mps 722 mmHg 84%
    14:00 -1°C° 0 mm 4 mps 722 mmHg 85%
    15:00 -2°C° 0 mm 4 mps 723 mmHg 86%
    16:00 -1°C° 0 mm 3 mps 723 mmHg 87%
    17:00 -1°C° 0 mm 3 mps 724 mmHg 87%
    18:00 -3°C° 0 mm 4 mps 724 mmHg 88%
    19:00 -3°C° 0 mm 4 mps 725 mmHg 88%
    20:00 -3°C° 0 mm 4 mps 725 mmHg 88%
    21:00 -3°C° 0 mm 4 mps 726 mmHg 88%
    22:00 -3°C° 0 mm 4 mps 726 mmHg 88%
    23:00 -3°C° 0 mm 4 mps 726 mmHg 88%

    17 December, Sunday

    Time Temperature Precipitation Wind Pressure Humidity
    00:00 -3°C° 0 mm 4 mps 727 mmHg 89%
    01:00 -4°C° 0 mm 4 mps 727 mmHg 89%
    02:00 -3°C° 0 mm 4 mps 727 mmHg 89%
    03:00 -3°C° 0 mm 4 mps 727 mmHg 89%
    04:00 -3°C° 0 mm 4 mps 727 mmHg 89%
    05:00 -3°C° 0 mm 4 mps 728 mmHg 89%
    06:00 -3°C° 0 mm 4 mps 728 mmHg 88%
    07:00 -3°C° 0 mm 4 mps 728 mmHg 88%
    08:00 -4°C° 0.1 mm 5 mps 729 mmHg 87%
    09:00 -2°C° 0.1 mm 5 mps 729 mmHg 86%
    10:00 -2°C° 0.1 mm 5 mps 730 mmHg 84%
    11:00 -2°C° 0.1 mm 5 mps 730 mmHg 84%
    12:00 -2°C° 0.1 mm 5 mps 730 mmHg 83%
    13:00 -2°C° 0.1 mm 5 mps 730 mmHg 83%
    14:00 -2°C° 0.1 mm 5 mps 730 mmHg 84%
    15:00 -2°C° 0.1 mm 5 mps 731 mmHg 85%
    16:00 -2°C° 0.1 mm 4 mps 731 mmHg 86%
    17:00 -2°C° 0.1 mm 4 mps 731 mmHg 87%
    18:00 -3°C° 0.1 mm 4 mps 732 mmHg 88%
    19:00 -3°C° 0.1 mm 4 mps 732 mmHg 89%
    20:00 -3°C° 0.2 mm 4 mps 733 mmHg 89%
    21:00 -3°C° 0.2 mm 4 mps 733 mmHg 90%
    22:00 -3°C° 0.2 mm 4 mps 733 mmHg 90%
    23:00 -3°C° 0.1 mm 4 mps 734 mmHg 90%

    18 December, Monday

    Time Temperature Precipitation Wind Pressure Humidity
    00:00 -4°C° 0.1 mm 4 mps 734 mmHg 91%
    01:00 -4°C° 0.1 mm 4 mps 734 mmHg 91%
    02:00 -4°C° 0 mm 4 mps 734 mmHg 91%
    03:00 -4°C° 0 mm 3 mps 734 mmHg 91%
    04:00 -4°C° 0 mm 3 mps 735 mmHg 91%
    05:00 -4°C° 0 mm 3 mps 735 mmHg 91%
    06:00 -4°C° 0 mm 3 mps 735 mmHg 92%
    07:00 -4°C° 0 mm 2 mps 735 mmHg 92%
    08:00 -3°C° 0 mm 2 mps 735 mmHg 91%
    09:00 -3°C° 0 mm 2 mps 735 mmHg 90%
    10:00 -2°C° 0 mm 2 mps 735 mmHg 88%
    11:00 -1°C° 0 mm 2 mps 734 mmHg 87%
    12:00 -1°C° 0 mm 2 mps 734 mmHg 86%
    13:00 -1°C° 0 mm 2 mps 734 mmHg 85%
    14:00 -1°C° 0 mm 2 mps 734 mmHg 87%
    15:00 0°C° 0 mm 1 mps 733 mmHg 89%
    16:00 0°C° 0 mm 1 mps 733 mmHg 91%
    17:00 0°C° 0 mm 1 mps 734 mmHg 91%
    18:00 -1°C° 0 mm 1 mps 734 mmHg 91%
    19:00 -1°C° 0 mm 1 mps 734 mmHg 92%
    20:00 -1°C° 0 mm 1 mps 735 mmHg 92%
    21:00 -1°C° 0 mm 1 mps 735 mmHg 92%
    22:00 -1°C° 0 mm 1 mps 736 mmHg 91%
    23:00 -2°C° 0 mm 1 mps 736 mmHg 91%
    Show more